Regional Weather Roundup
Issued by NWS

Home | Current Version | Previous Version | Text Only | Print | Product List | Glossary Off
Versions: 1 2 3 4 5 6 7 8 9 10 11 12 13 14 15 16 17 18 19 20 21 22 23 24 25 26 27 28 29 30 31 32 33 34 35 36 37 38 39 40 41 42 43 44 45 46 47 48 49 50

000
ASUS43 KMPX 291401
RWRMN
WEATHER ROUNDUP FOR MINNESOTA
NATIONAL WEATHER SERVICE TWIN CITIES/CHANHASSEN MN
800 AM CST THU JAN 29 2015


NOTE: "FAIR" INDICATES FEW OR NO CLOUDS BELOW 12,000 FEET WITH NO
SIGNIFICANT WEATHER AND/OR OBSTRUCTIONS TO VISIBILITY. N/A MEANS
CURRENT SKY AND/OR WEATHER CONDITIONS ARE NOT AVAILABLE.

MNZ060>063-068>070-291500-
   Twin Cities Metro

CITY           SKY/WX    TMP DP  RH WIND       PRES   REMARKS
TWIN CITIES    CLOUDY    31  25  78 NW16G28   30.09R WCI  20
ST PAUL        CLOUDY    31  28  89 NW21G29   30.10R WCI  18
CRYSTAL        CLOUDY    31  25  78 NW14G29   30.10R WCI  21
BLAINE         CLOUDY    34  30  86 MISG      30.08R
LAKEVILLE      CLOUDY    28  27  93 NW16G25   30.09R WCI  17
EDEN PRAIRIE   CLOUDY    30  23  75 NW20G26   30.10R WCI  17
SOUTH ST PAUL  CLOUDY    32  29  90 NW16G23   30.08R WCI  21
LAKE ELMO      CLOUDY    32  28  86 N10G22    30.08R WCI  24
$$
MNZ001>005-007-008-013>017-022>024-027-028-291500-
   Northwest Minnesota

CITY           SKY/WX    TMP DP  RH WIND       PRES   REMARKS
BEMIDJI        CLOUDY    15  12  90 NW18      30.21R WCI  -2
HALLOCK        PTCLDY     7   1  78 NW23G31   30.40R WCI -14
ROSEAU         CLOUDY     9   1  72 NW18      30.31R WCI -10
WARROAD        MOCLDY     5   0  78 NW18G29   30.29R WCI -15
THIEF RVR FALL CLOUDY    10   7  85 NW21      30.32R WCI  -9
CROOKSTON      CLOUDY    12   9  85 N32       30.38R WCI -10
FOSSTON        FLURRIES  10   9  92 NW15G23   30.29R WCI  -6
DETROIT LAKES  FLURRIES  18  14  86 NW16      30.28R WCI   3
MOORHEAD       CLOUDY    19  18  93 N17G26    30.36R WCI   4
PARK RAPIDS    CLOUDY    18  14  84 NW16G25   30.19R WCI   3
MAHNOMEN       FLURRIES  14  10  85 NW21G26   30.28R WCI  -4
$$
MNZ006-009>011-018-025>026-291500-
   North Central Minnesota

CITY           SKY/WX    TMP DP  RH WIND       PRES   REMARKS
BAUDETTE       LGT SNOW   9   4  80 NW22G28   30.23R WCI -11
FLAG ISLAND    CLOUDY     5   1  85 NW25      30.26R FOG     WCI -18
INTL FALLS     CLOUDY    17  13  84 NW20      30.14R WCI   1
WASKISH        FLURRIES  14  10  85 NW16G25   30.21R WCI  -2
BIG FORK       CLOUDY    18  14  86 NW7       30.13R WCI   8
LONGVILLE      CLOUDY    19  16  86 NW9G20    30.16R WCI   9
GRAND RAPIDS   CLOUDY    21  18  86 NW16G28   30.10R WCI   7
CRANE LAKE     FLURRIES  18  16  93 N14G20    30.11R WCI   4
ORR            CLOUDY    19  16  86 NW9       30.06R WCI   9
COOK           CLOUDY    21  18  86 NW10G20   30.07R WCI  10
WALKER         CLOUDY    17  14  86 NW8G23    30.17R WCI   7
$$
MNZ012-019>021-037-291500-
   Northeast Minnesota

CITY           SKY/WX    TMP DP  RH WIND       PRES   REMARKS
DULUTH         MOCLDY    26  18  71 NW21G31   30.01R WCI  12
ELY            CLOUDY    19  18  93 NW10G18   30.02R WCI   8
HIBBING        CLOUDY    22  18  85 NW23G30   30.07R WCI   6
EVELETH        CLOUDY    23  21  93 NW13G22   30.05R WCI  11
DULUTH HARBOR  CLOUDY    30  25  80 NW15G23   30.06R WCI  19
TWO HARBORS    CLOUDY    30  23  74 NW12G17   29.99R WCI  21
SILVER BAY     CLOUDY    27  19  74 NW7G16    29.98R WCI  19
GRAND MARAIS     N/A     25  17  72 NW14G22   29.96R WCI  13
G MARAIS ARPRT CLOUDY    18  12  79 NW14G23   29.89R WCI   4
$$
MNZ029>031-032-039>041-046>048-054>057-064-291500-
   West Central Minnesota

CITY           SKY/WX    TMP DP  RH WIND       PRES   REMARKS
FERGUS FALLS   CLOUDY    18  16  93 N17G31    30.33R WCI   2
WHEATON        CLOUDY    21  18  86 NW22G28   30.35R WCI   5
MORRIS         CLOUDY    25  19  80 NW30G36   30.27R WCI   8
ALEXANDRIA     CLOUDY    21  16  81 NW16G28   30.22R WCI   7
ELBOW LAKE     CLOUDY    20  17  87 N18       30.28R WCI   4
WADENA         CLOUDY    18  16  93 NW17G28   30.21R WCI   2
GLENWOOD       CLOUDY    21  19  93 NW17G25   30.23R WCI   7
APPLETON       CLOUDY    27  21  80 NW29G36   30.29R WCI  11
BENSON         CLOUDY    25  18  74 N24G33    30.27R WCI   9
ORTONVILLE     CLOUDY    27  19  74 N15G25    30.30R WCI  15
MADISON        CLOUDY    30  25  80 N24G31    30.29R WCI  16
WILLMAR        CLOUDY    27  21  80 NW22G28   30.23R WCI  12
$$
MNZ033>034-036-042>043-049>051-058-059-291500-
   Central Minnesota

CITY           SKY/WX    TMP DP  RH WIND       PRES   REMARKS
ST CLOUD       CLOUDY    28  21  75 NW17G26   30.14R WCI  16
SAUK CENTRE    CLOUDY    22  18  86 NW18G24   30.20R WCI   7
PAYNESVILLE    CLOUDY    23  20  89 W20G28    30.20R WCI   8
AITKIN         CLOUDY    27  19  74 NW13G22   30.10R WCI  16
PINE RIVER     CLOUDY    21  18  86 NW16      30.19R WCI   7
BRAINERD       CLOUDY    24  19  81 NW17G26   30.15R WCI  11
STAPLES        CLOUDY    19  18  93 NW17G26   30.19R WCI   4
LONG PRAIRIE   CLOUDY    21  18  86 W18G25    30.19R WCI   6
LITTLE FALLS   CLOUDY    27  19  74 W12G23    30.16R WCI  16
LITCHFIELD     CLOUDY    28  25  86 NW18G26   30.18R WCI  16
BUFFALO        CLOUDY    29  23  78 NW14G26   30.15R WCI  18
MAPLE LAKE     CLOUDY    30  25  83 NW16G24   30.15R WCI  18
$$
MNZ037-044-045-052-053-291500-
   East Central Minnesota

CITY           SKY/WX    TMP DP  RH WIND       PRES   REMARKS
PRINCETON      CLOUDY    30  25  80 NW17G23   30.13R WCI  18
MORA           CLOUDY    28  23  80 NW15      30.10R WCI  17
CAMBRIDGE      CLOUDY    32  21  64 NW15G23   30.08R WCI  22
RUSH CITY      CLOUDY    31  24  74 NW13G23   30.08R WCI  21
MOOSE LAKE     CLOUDY    30  23  74 N17G25    30.05R WCI  18
HINCKLEY       CLOUDY    30  27  86 NW13G23   30.08R WCI  20
CLOQUET        CLOUDY    27  19  74 NW18G26   30.04R WCI  13
MCGREGOR       CLOUDY    27  21  80 NW15G23   30.09R WCI  15
$$
MNZ071>073-080-081-089-090-097-098-291500-
   Southwest Minnesota

CITY           SKY/WX    TMP DP  RH WIND       PRES   REMARKS
MONTEVIDEO     CLOUDY    27  23  86 N21G29    30.28R WCI  13
GRANITE FALLS  CLOUDY    28  24  86 NW21G32   30.28R WCI  14
CANBY          CLOUDY    28  23  81 NW17G28   30.30R WCI  16
MARSHALL       CLOUDY    27  19  74 N25G37    30.27R WCI  11
REDWOOD FALLS  CLOUDY    28  23  81 NW22G37   30.23R WCI  14
OLIVIA         CLOUDY    28  27  93 NW23G29   30.22R WCI  14
PIPESTONE      CLOUDY    28  25  86 N21G28    30.24R WCI  15
WINDOM         CLOUDY    28  25  86 NW32G38   30.20R WCI  12
WORTHINGTON    CLOUDY    28  21  74 N21G29    30.23R WCI  15
JACKSON        CLOUDY    30  25  80 N25G41    30.18R WCI  16
TRACY          CLOUDY    29  26  87 NW20G25   30.24R WCI  16
SLAYTON        CLOUDY    28  24  86 NW21G33   30.23R WCI  14
$$
MNZ065>067-074>077-082>085-091>093-291500-
   South Central Minnesota

CITY           SKY/WX    TMP DP  RH WIND       PRES   REMARKS
MANKATO        CLOUDY   N/A N/A N/A NW25G35   30.14R
NEW ULM        CLOUDY    28  21  74 N18G38    30.19R WCI  16
ST JAMES       CLOUDY    30  25  80 NW35G43   30.19R WCI  14
FAIRMONT       CLOUDY    30  23  74 NW30G38   30.15R WCI  15
GLENCOE        CLOUDY    30  26  86 NW20G25   30.15R WCI  17
FARIBAULT      CLOUDY    30  27  86 NW15G24   30.10R WCI  19
OWATONNA       CLOUDY    30  27  86 NW22G29   30.09R FOG     WCI  17
WASECA         CLOUDY    30  27  86 NW22G30   30.13R WCI  17
ALBERT LEA     CLOUDY    28  28 100 NW16G25   30.09R WCI  17
$$
MNZ078>079-086>088-094>096-291500-
   Southeast Minnesota

CITY           SKY/WX    TMP DP  RH WIND       PRES   REMARKS
ROCHESTER      MIX PCPN  32  29  88 NW23      30.02R WCI  19
RED WING       CLOUDY    34  27  75 NW12G21   30.05R WCI  25
STANTON        CLOUDY    32  28  86 NW20G28   30.06R WCI  20
DODGE CENTER   CLOUDY    30  30 100 NW21G28   30.04R FOG     WCI  17
WINONA         CLOUDY    34  30  86 N12G20    30.01R WCI  25
AUSTIN         CLOUDY    30  27  86 NW20G30   30.06R WCI  18
PRESTON        CLOUDY    32  28  84 N22G29    30.01R WCI  19
$$
ABBREVIATIONS USED IN REMARKS
   TC - TEMPERATURES IN CELSIUS
  WCI - WIND CHILL INDEX
   HX - HEAT INDEX
  VSB - VISIBILITY
$$



USA.gov is the U.S. government's official web portal to all federal, state and local government web resources and services.